• In Romania
  • List of Countries
  • For 7 days
  • Water Temperature
  • Satellite Maps
  • Weather Map
  • Weather Widgets
  • user-avatar
    Login

    Hourly Weather Wiktoria

    Today, 20 January, Friday

    Time Temperature Precipitation Wind Pressure Humidity
    00:00 +24°C° 0 mm 1 mps 738 mmHg 33%
    01:00 +24°C° 0 mm 1 mps 737 mmHg 34%
    02:00 +24°C° 0.1 mm 2 mps 737 mmHg 41%
    03:00 +24°C° 0.1 mm 2 mps 736 mmHg 48%
    04:00 +22°C° 0 mm 1 mps 736 mmHg 55%
    05:00 +21°C° 1.2 mm 1 mps 736 mmHg 66%
    06:00 +21°C° 1.2 mm 1 mps 735 mmHg 76%
    07:00 +20°C° 1.2 mm 1 mps 735 mmHg 87%
    08:00 +21°C° 0.4 mm 1 mps 735 mmHg 86%
    09:00 +21°C° 0.4 mm 1 mps 736 mmHg 85%
    10:00 +21°C° 0 mm 2 mps 736 mmHg 82%
    11:00 +22°C° 0 mm 3 mps 736 mmHg 70%
    12:00 +25°C° 0 mm 3 mps 737 mmHg 58%
    13:00 +27°C° 0 mm 4 mps 737 mmHg 46%
    14:00 +26°C° 0 mm 4 mps 738 mmHg 45%
    15:00 +26°C° 0 mm 4 mps 738 mmHg 45%
    16:00 +25°C° 0 mm 4 mps 739 mmHg 44%
    17:00 +22°C° 0 mm 4 mps 740 mmHg 48%
    18:00 +21°C° 0 mm 4 mps 741 mmHg 53%
    19:00 +19°C° 0 mm 3 mps 742 mmHg 57%
    20:00 +18°C° 0 mm 3 mps 743 mmHg 61%
    21:00 +17°C° 0 mm 2 mps 744 mmHg 65%
    22:00 +15°C° 0 mm 2 mps 744 mmHg 69%
    23:00 +15°C° 0 mm 2 mps 745 mmHg 71%

    Tomorrow, 21 January, Saturday

    Time Temperature Precipitation Wind Pressure Humidity
    00:00 +14°C° 0 mm 2 mps 745 mmHg 72%
    01:00 +14°C° 0 mm 2 mps 746 mmHg 74%
    02:00 +13°C° 0 mm 2 mps 746 mmHg 76%
    03:00 +13°C° 0 mm 2 mps 746 mmHg 77%
    04:00 +13°C° 0 mm 2 mps 746 mmHg 79%
    05:00 +13°C° 0 mm 2 mps 747 mmHg 76%
    06:00 +14°C° 0 mm 2 mps 747 mmHg 73%
    07:00 +14°C° 0 mm 2 mps 748 mmHg 71%
    08:00 +16°C° 0 mm 2 mps 748 mmHg 61%
    09:00 +19°C° 0 mm 2 mps 748 mmHg 52%
    10:00 +21°C° 0 mm 2 mps 748 mmHg 43%
    11:00 +24°C° 0 mm 2 mps 748 mmHg 38%
    12:00 +26°C° 0 mm 2 mps 748 mmHg 33%
    13:00 +28°C° 0 mm 2 mps 748 mmHg 28%
    14:00 +29°C° 0 mm 2 mps 747 mmHg 27%
    15:00 +29°C° 0 mm 2 mps 747 mmHg 26%
    16:00 +30°C° 0 mm 2 mps 747 mmHg 26%
    17:00 +28°C° 0 mm 2 mps 747 mmHg 30%
    18:00 +27°C° 0 mm 2 mps 747 mmHg 34%
    19:00 +26°C° 0 mm 2 mps 747 mmHg 38%
    20:00 +24°C° 0 mm 2 mps 748 mmHg 44%
    21:00 +21°C° 0 mm 2 mps 748 mmHg 50%
    22:00 +19°C° 0 mm 2 mps 749 mmHg 56%
    23:00 +18°C° 0 mm 2 mps 749 mmHg 60%

    Day after tomorrow, 22 January, Sunday

    Time Temperature Precipitation Wind Pressure Humidity
    00:00 +17°C° 0 mm 2 mps 749 mmHg 64%
    01:00 +16°C° 0 mm 1 mps 749 mmHg 68%
    02:00 +16°C° 0 mm 1 mps 749 mmHg 71%
    03:00 +15°C° 0 mm 1 mps 749 mmHg 74%
    04:00 +14°C° 0 mm 1 mps 748 mmHg 76%
    05:00 +16°C° 0 mm 1 mps 749 mmHg 72%
    06:00 +18°C° 0 mm 1 mps 749 mmHg 68%
    07:00 +19°C° 0 mm 1 mps 750 mmHg 63%
    08:00 +22°C° 0 mm 1 mps 750 mmHg 56%
    09:00 +24°C° 0 mm 1 mps 750 mmHg 49%
    10:00 +27°C° 0 mm 1 mps 749 mmHg 41%
    11:00 +29°C° 0 mm 1 mps 749 mmHg 35%
    12:00 +32°C° 0 mm 1 mps 748 mmHg 29%
    13:00 +34°C° 0 mm 1 mps 748 mmHg 23%
    14:00 +35°C° 0 mm 1 mps 747 mmHg 21%
    15:00 +35°C° 0 mm 1 mps 747 mmHg 19%
    16:00 +36°C° 0 mm 1 mps 746 mmHg 17%
    17:00 +34°C° 0 mm 1 mps 746 mmHg 22%
    18:00 +32°C° 0 mm 1 mps 746 mmHg 27%
    19:00 +29°C° 0 mm 1 mps 746 mmHg 31%
    20:00 +28°C° 0 mm 1 mps 746 mmHg 33%
    21:00 +26°C° 0 mm 1 mps 746 mmHg 36%
    22:00 +25°C° 0 mm 1 mps 746 mmHg 38%
    23:00 +24°C° 0 mm 1 mps 746 mmHg 40%

    23 January, Monday

    Time Temperature Precipitation Wind Pressure Humidity
    00:00 +23°C° 0 mm 1 mps 746 mmHg 41%
    01:00 +22°C° 0 mm 1 mps 745 mmHg 43%
    02:00 +22°C° 0 mm 1 mps 745 mmHg 44%
    03:00 +22°C° 0 mm 1 mps 745 mmHg 45%
    04:00 +21°C° 0 mm 1 mps 745 mmHg 46%
    05:00 +22°C° 0 mm 1 mps 745 mmHg 44%
    06:00 +23°C° 0 mm 2 mps 745 mmHg 43%
    07:00 +25°C° 0 mm 2 mps 745 mmHg 41%
    08:00 +27°C° 0 mm 2 mps 745 mmHg 38%
    09:00 +30°C° 0 mm 2 mps 745 mmHg 34%
    10:00 +34°C° 0 mm 2 mps 745 mmHg 30%
    11:00 +35°C° 0 mm 2 mps 744 mmHg 30%
    12:00 +35°C° 0 mm 1 mps 744 mmHg 29%
    13:00 +36°C° 0 mm 1 mps 743 mmHg 28%
    14:00 +37°C° 0 mm 1 mps 742 mmHg 26%
    15:00 +39°C° 0 mm 2 mps 741 mmHg 25%
    16:00 +40°C° 0 mm 2 mps 740 mmHg 24%
    17:00 +38°C° 0 mm 2 mps 741 mmHg 27%
    18:00 +36°C° 0 mm 1 mps 741 mmHg 31%
    19:00 +34°C° 0 mm 1 mps 741 mmHg 35%
    20:00 +33°C° 0 mm 1 mps 741 mmHg 39%
    21:00 +32°C° 0 mm 1 mps 742 mmHg 43%
    22:00 +31°C° 0 mm 1 mps 742 mmHg 47%
    23:00 +29°C° 0.6 mm 1 mps 742 mmHg 58%

    24 January, Tuesday

    Time Temperature Precipitation Wind Pressure Humidity
    00:00 +28°C° 0.6 mm 1 mps 742 mmHg 68%
    01:00 +26°C° 0.6 mm 1 mps 742 mmHg 79%
    02:00 +26°C° 0.4 mm 1 mps 742 mmHg 82%
    03:00 +25°C° 0.4 mm 1 mps 743 mmHg 86%
    04:00 +25°C° 0.4 mm 1 mps 743 mmHg 89%
    05:00 +25°C° 0.2 mm 1 mps 744 mmHg 87%
    06:00 +25°C° 0.2 mm 1 mps 744 mmHg 84%
    07:00 +25°C° 0.2 mm 1 mps 745 mmHg 82%
    08:00 +26°C° 0 mm 2 mps 746 mmHg 69%
    09:00 +28°C° 0 mm 2 mps 746 mmHg 56%
    10:00 +29°C° 0 mm 2 mps 747 mmHg 43%
    11:00 +30°C° 0 mm 2 mps 747 mmHg 39%
    12:00 +31°C° 0 mm 2 mps 747 mmHg 35%
    13:00 +32°C° 0 mm 2 mps 747 mmHg 30%
    14:00 +34°C° 0 mm 2 mps 747 mmHg 29%
    15:00 +34°C° 0 mm 3 mps 747 mmHg 27%
    16:00 +34°C° 0 mm 3 mps 747 mmHg 25%
    17:00 +30°C° 0 mm 3 mps 748 mmHg 30%
    18:00 +28°C° 0 mm 3 mps 748 mmHg 35%
    19:00 +26°C° 0 mm 3 mps 749 mmHg 40%
    20:00 +24°C° 0 mm 3 mps 750 mmHg 45%
    21:00 +21°C° 0 mm 3 mps 750 mmHg 49%
    22:00 +19°C° 0 mm 3 mps 751 mmHg 54%
    23:00 +18°C° 0 mm 3 mps 751 mmHg 56%

    25 January, Wednesday

    Time Temperature Precipitation Wind Pressure Humidity
    00:00 +18°C° 0 mm 3 mps 752 mmHg 58%
    01:00 +17°C° 0 mm 3 mps 752 mmHg 60%
    02:00 +16°C° 0 mm 2 mps 752 mmHg 62%
    03:00 +16°C° 0 mm 2 mps 752 mmHg 65%
    04:00 +15°C° 0 mm 2 mps 752 mmHg 67%
    05:00 +15°C° 0 mm 2 mps 752 mmHg 66%
    06:00 +16°C° 0 mm 2 mps 753 mmHg 66%
    07:00 +16°C° 0 mm 2 mps 753 mmHg 65%
    08:00 +20°C° 0 mm 1 mps 753 mmHg 57%
    09:00 +23°C° 0 mm 1 mps 753 mmHg 48%
    10:00 +26°C° 0 mm 1 mps 753 mmHg 39%
    11:00 +28°C° 0 mm 1 mps 752 mmHg 34%
    12:00 +30°C° 0 mm 1 mps 752 mmHg 29%
    13:00 +32°C° 0 mm 1 mps 751 mmHg 23%
    14:00 +32°C° 0 mm 1 mps 751 mmHg 22%
    15:00 +32°C° 0 mm 2 mps 750 mmHg 21%
    16:00 +34°C° 0 mm 2 mps 750 mmHg 20%
    17:00 +31°C° 0 mm 2 mps 750 mmHg 25%
    18:00 +29°C° 0 mm 3 mps 750 mmHg 30%
    19:00 +27°C° 0 mm 3 mps 751 mmHg 35%
    20:00 +25°C° 0 mm 3 mps 751 mmHg 41%
    21:00 +21°C° 0 mm 3 mps 751 mmHg 47%
    22:00 +19°C° 0 mm 3 mps 752 mmHg 53%
    23:00 +18°C° 0 mm 2 mps 752 mmHg 56%
    Show more